Location: Moscow
(55.7500°N, 37.5830°E)
Time: 05:30:24
(UTC+03:00)

Envisat - Pass Details

Date: 31 October 2021
Orbit: 764 x 766 km, 98.2° (Epoch: 28 November)

Event Time Altitude Azimuth Distance (km) Brightness Sun altitude
Rises 04:34:29 0° 22° (NNE) 3,246 6.7 -25.5°
Reaches altitude 10° 04:37:16 10° 37° (NE) 2,315 6.1 -25.1°
Maximum altitude 04:41:18 23° 89° (E) 1,576 5.3 -24.5°
Drops below altitude 10° 04:45:20 10° 142° (SE) 2,300 5.8 -24.0°
Sets 04:48:05 0° 157° (SSE) 3,221 6.4 -23.6°
